Location: Asheville, NC
(35.6000°N, 82.5500°W)
Time: 05:21:42
(UTC-04:00)

Vanguard 1 Rocket - All Passes

Search period start: 17 October 2017 00:00
Search period end: 27 October 2017 00:00
Orbit: 655 x 4222 km, 34.3° (Epoch: 16 October)

Date Brightness Start Highest point End Pass type
(mag) Time Alt. Az. Time Alt. Az. Time Alt. Az.
17 Oct - 08:01:35 10° SW 08:08:31 31° SSE 08:13:05 10° E daylight
17 Oct - 10:28:07 10° WSW 10:33:25 70° S 10:37:47 10° E daylight
17 Oct - 12:53:41 10° W 12:58:00 61° SSW 13:03:26 10° ESE daylight
17 Oct - 15:18:42 10° WSW 15:23:01 24° SSW 15:29:17 10° SSE daylight
18 Oct - 06:49:54 10° SSW 06:57:17 23° SSE 07:02:11 10° ESE visible
18 Oct - 09:16:15 10° WSW 09:22:46 55° SSE 09:27:14 10° E daylight
18 Oct - 11:42:49 10° W 11:47:25 75° S 11:52:05 10° E daylight
18 Oct - 14:07:52 10° W 14:12:03 33° SSW 14:17:53 10° SE daylight
18 Oct - 16:36:44 10° SW 16:37:52 10° SSW 16:39:06 10° SSW daylight
19 Oct - 05:38:50 10° S 05:45:35 17° SSE 05:50:28 10° ESE visible
19 Oct - 08:03:59 10° SW 08:11:55 42° SSE 08:16:48 10° E daylight
19 Oct - 10:31:23 10° W 10:36:50 77° S 10:41:12 10° E daylight
19 Oct - 12:57:09 10° W 13:01:23 48° SSW 13:06:31 10° ESE daylight
19 Oct - 15:23:08 10° WSW 15:26:26 16° SSW 15:30:43 10° SSE daylight
20 Oct - 04:30:09 10° SSE 04:33:23 11° SSE 04:36:13 10° SE visible
20 Oct - 06:51:33 10° SW 07:00:43 32° SSE 07:06:13 10° E visible
20 Oct - 09:19:18 10° WSW 09:26:09 67° S 09:30:42 10° E daylight
20 Oct - 11:46:12 10° W 11:50:49 66° S 11:55:24 10° ESE daylight
20 Oct - 14:11:42 10° WSW 14:15:25 23° SSW 14:20:15 10° SSE daylight
21 Oct - 05:39:21 10° SSW 05:49:02 24° SSE 05:55:12 10° ESE visible
21 Oct - 08:06:37 10° WSW 08:15:17 54° SSE 08:20:22 10° E daylight
21 Oct - 10:34:41 10° W 10:40:15 78° S 10:44:37 10° E daylight
21 Oct - 13:00:42 10° W 13:04:43 35° SSW 13:09:27 10° SE daylight
22 Oct - 04:28:01 10° S 04:36:53 18° SSE 04:43:09 10° ESE visible
22 Oct - 06:53:37 10° SW 07:04:05 42° SSE 07:10:00 10° E visible
22 Oct - 09:22:26 10° WSW 09:29:32 76° S 09:34:09 10° E daylight
22 Oct - 11:49:35 10° W 11:54:12 54° SSW 11:58:38 10° ESE daylight
22 Oct - 14:15:59 10° WSW 14:18:47 15° SSW 14:22:04 10° S daylight
23 Oct - 03:19:26 10° SSE 03:24:11 12° SSE 03:28:15 10° SE visible
23 Oct - 05:40:37 10° SSW 05:52:27 33° SSE 05:59:18 10° E visible
23 Oct - 08:09:28 10° WSW 08:18:39 65° SSE 08:23:53 10° E daylight
23 Oct - 10:37:59 10° W 10:43:39 73° S 10:48:01 10° ESE daylight
23 Oct - 13:04:23 10° W 13:08:02 25° SSW 13:12:07 10° SSE daylight
24 Oct - 04:28:05 10° SSW 04:40:17 25° SSE 04:47:58 10° ESE visible
24 Oct - 06:55:59 10° SW 07:07:26 53° SSE 07:13:35 10° E visible
24 Oct - 09:25:37 10° W 09:32:56 80° S 09:37:36 10° E daylight
24 Oct - 11:53:00 10° W 11:57:32 42° SSW 12:01:46 10° SE daylight
25 Oct - 03:16:49 10° S 03:27:37 18° SSE 03:35:21 10° ESE visible
25 Oct - 05:42:20 10° SW 05:55:48 43° SSE 06:03:05 10° E visible
25 Oct - 08:12:26 10° WSW 08:22:00 74° S 08:27:21 10° E daylight
25 Oct - 10:41:17 10° W 10:47:01 64° SSW 10:51:22 10° ESE daylight
25 Oct - 13:08:24 10° WSW 13:11:17 17° SSW 13:14:22 10° SSE daylight
26 Oct - 02:09:21 10° SSE 02:14:25 11° SE 02:18:52 10° SE visible
26 Oct - 04:28:57 10° SSW 04:43:39 34° SSE 04:52:09 10° E visible
26 Oct - 06:58:34 10° WSW 07:10:46 64° SSE 07:17:07 10° E visible
26 Oct - 09:28:49 10° W 09:36:19 79° S 09:41:02 10° E daylight
26 Oct - 11:56:32 10° W 12:00:47 31° SSW 12:04:43 10° SE daylight
